LARETS

Last updated on Fri Oct 11 2024 00:03:25 GMT+0000 (Coordinated Universal Time)

1 27944U 03042F 24284.58389520 .00000595 00000+0 12399-3 0 9990 2 27944 98.3332 65.9329 0012888 150.3320 209.8615 14.63608196123451
UTC large
Height (km)
Speed (km/s)
/
Latitude / Longitude
Inclination (degrees)
Orbital Period (minutes)
Azimuth
Elevation
Range (km)
Doppler Factor

Next 0 passes for location: London (51.5072 / 0.1276)

Sorry there are no passes over London.